Regional Weather Roundup
Issued by NWS

Home | Current Version | Previous Version | Text Only | Print | Product List | Glossary Off
Versions: 1 2 3 4 5 6 7 8 9 10 11 12 13 14 15 16 17 18 19 20 21 22 23 24 25 26 27 28 29 30 31 32 33 34 35 36 37 38 39 40 41 42 43 44 45 46 47 48 49 50

000
ASUS45 KABQ 161810
RWRNM
NEW MEXICO REGIONAL WEATHER ROUNDUP
NATIONAL WEATHER SERVICE ALBUQUERQUE NM
1100 AM MST SAT DEC 16 2017

NOTE: "FAIR" MEANS FEW OR NO CLOUDS BELOW 12,000 FEET AGL WITH NO
       SIGNIFICANT WEATHER OR OBSTRUCTIONS TO VISION.

      THIS PRODUCT IS RELEASED AS TWO VERSIONS.  ONE VERSION NEAR
      THE TOP OF THE HOUR CONTAINING PRELIMINARY DATA FROM ALBUQUERQUE
      AND OTHER STATIONS.  A FINAL VERSION WITH ADDITIONAL DATA IS
      ISSUED ABOUT 10 MINUTES AFTER THE HOUR.

NMZ501-503-504-510>518-161900-
NORTHWEST PLATEAU/NORTHCENTRAL MOUNTAINS

CITY           SKY/WX    TMP DP  RH WIND       PRES   REMARKS
FARMINGTON     FAIR      35  15  44 E7        29.85F WCI  29
6HR MIN TEMP:  15; 6HR MAX TEMP:  35;

LOS ALAMOS     FAIR      35   9  33 CALM      29.85F
SANTA FE       FAIR      38  11  32 N13       29.83F WCI  30
6HR MIN TEMP:  15; 6HR MAX TEMP:  38;

TAOS           FAIR      38   5  25 N7        29.87F WCI  33
ANGEL FIRE     FAIR      41   6  24 CALM      29.84F

$$
NMZ402-403-502-505>509-161900-
WESTCENTRAL MOUNTAINS/SOUTHWEST MOUNTAINS

CITY           SKY/WX    TMP DP  RH WIND       PRES   REMARKS
GALLUP         FAIR      41   6  23 CALM      29.86F
6HR MIN TEMP:   5; 6HR MAX TEMP:  41;

GRANTS         FAIR      34  -2  21 NW7       29.88F WCI  27
SILVER CITY    FAIR      44  19  36 CALM      29.93F

$$
NMZ407-409-411-412-161900-
SOUTHERN DESERTS

CITY           SKY/WX    TMP DP  RH WIND       PRES   REMARKS
DEMING         FAIR      44  22  41 S6        29.94F
6HR MIN TEMP:  16; 6HR MAX TEMP:  44;

LAS CRUCES     FAIR      46  24  41 S6        29.95F
HOLLOMAN AFB   FAIR      49  23  36 SW7       29.96F
ALAMOGORDO     FAIR      46  21  36 SW8       29.95F
T OR C         FAIR      43  21  41 S10       29.92F
6HR MIN TEMP:  23; 6HR MAX TEMP:  43;


$$
NMZ519>523-161900-
CENTRAL VALLEYS/CENTRAL HIGHLANDS

CITY           SKY/WX    TMP DP  RH WIND       PRES   REMARKS
ALBUQUERQUE    FAIR      37  18  46 S12       29.89F WCI  29
6HR MIN TEMP:  24; 6HR MAX TEMP:  37;

DOUBLE EAGLE   MOSUNNY   36  16  44 SE5       29.88F WCI  32
MORIARTY ARPT  FAIR      39  15  38 CALM      29.85F
6HR MIN TEMP:   6; 6HR MAX TEMP:  39;

CLINES CORNERS FAIR      40  12  32 W21       29.81F WCI  30
6HR MIN TEMP:  20; 6HR MAX TEMP:  40;

BELEN          FAIR      37  13  37 SW8       29.90F WCI  31
6HR MIN TEMP:  12; 6HR MAX TEMP:  37;

SOCORRO        FAIR      42  18  38 S12       29.90F
6HR MIN TEMP:  20; 6HR MAX TEMP:  42;


$$
NMZ524>526-539-540-161900-
SOUTHCENTRAL MOUNTAINS

CITY           SKY/WX    TMP DP  RH WIND       PRES   REMARKS
RUIDOSO        FAIR      41  14  33 N6        29.89F

$$
NMZ527>531-161900-
NORTHEAST HIGHLANDS/NORTHEAST PLAINS

CITY           SKY/WX    TMP DP  RH WIND       PRES   REMARKS
LAS VEGAS      FAIR      56   3  11 S6        29.73F
6HR MIN TEMP:  22; 6HR MAX TEMP:  56;

RATON          FAIR      54   8  16 N5        29.71F
6HR MIN TEMP:  17; 6HR MAX TEMP:  54;

CLAYTON        FAIR      55  11  17 S16       29.70F
6HR MIN TEMP:  31; 6HR MAX TEMP:  57;


$$
NMZ532>537-161900-
EASTCENTRAL PLAINS

CITY           SKY/WX    TMP DP  RH WIND       PRES   REMARKS
SANTA ROSA     FAIR      52  12  20 SW16G26   29.76F
TUCUMCARI      FAIR      51  18  27 SW26G33   29.74F
6HR MIN TEMP:  30; 6HR MAX TEMP:  51;

CANNON AFB     FAIR      49  19  31 SW18      29.84F
6HR MIN TEMP:  19; 6HR MAX TEMP:  49;

CLOVIS AIRPORT FAIR      50  21  32 SW16      29.84F

$$
NMZ028-029-538-161900-
SOUTHEAST PLAINS

CITY           SKY/WX    TMP DP  RH WIND       PRES   REMARKS
ROSWELL        FAIR      43  23  45 NE3       29.85F
6HR MIN TEMP:  13; 6HR MAX TEMP:  43;

ARTESIA        FAIR      50  25  37 S17       29.87F
CARLSBAD       FAIR      47  27  45 CALM      29.87F
6HR MIN TEMP:  17; 6HR MAX TEMP:  47;

HOBBS          SUNNY     50  23  34 S21G28    29.88F


$$



USA.gov is the U.S. government's official web portal to all federal, state and local government web resources and services.